W7TRD Weather Reports


time (UTC)temp
C
wind
direction
speed
KPH
gust
KPH
rain 1hr
cm
rain 24hr
cm
rain mn
cm
humidity
%
barometer
mb
20260505124706 11 194 0.0 3.2 0.00 0.00 0.00 97 1016.0
20260505124203 11 174 0.0 1.6 0.00 0.00 0.00 96 1016.0
20260505123659 11 176 0.0 1.6 0.00 0.00 0.00 96 1016.0
20260505123156 11 186 0.0 1.6 0.00 0.00 0.00 96 1016.1
20260505122653 11 161 1.6 1.6 0.00 0.00 0.00 96 1015.9
20260505122150 11 188 0.0 1.6 0.00 0.00 0.00 96 1015.9
20260505121646 11 244 1.6 3.2 0.00 0.00 0.00 96 1016.1
20260505121143 11 184 0.0 1.6 0.00 0.00 0.00 97 1015.9
20260505120640 11 173 0.0 0.0 0.00 0.00 0.00 97 1016.1
20260505120136 11 175 0.0 1.6 0.00 0.00 0.00 97 1015.9
20260505115635 11 178 0.0 3.2 0.00 0.00 0.00 97 1015.9
20260505115133 11 183 0.0 1.6 0.00 0.00 0.00 97 1016.0
20260505114630 11 177 0.0 0.0 0.00 0.00 0.00 96 1015.8
20260505114126 11 175 0.0 0.0 0.00 0.00 0.00 96 1015.9
20260505113623 11 165 0.0 1.6 0.00 0.00 0.00 96 1015.8
20260505113120 11 173 0.0 1.6 0.00 0.00 0.00 96 1015.9
20260505112615 12 178 0.0 1.6 0.00 0.00 0.00 95 1015.8
20260505112115 12 114 1.6 1.6 0.00 0.00 0.00 95 1015.8
20260505111614 12 172 0.0 1.6 0.00 0.00 0.00 94 1015.9
20260505111110 12 124 1.6 1.6 0.00 0.00 0.00 93 1015.9
20260505110606 12 175 0.0 0.0 0.00 0.00 0.00 92 1015.7
20260505110104 12 174 0.0 0.0 0.00 0.00 0.00 91 1015.8
20260505102039 12 176 0.0 1.6 0.00 0.00 0.00 90 1015.3
20260505101537 12 178 0.0 0.0 0.00 0.00 0.00 90 1015.3
20260505101033 12 176 0.0 0.0 0.00 0.00 0.00 90 1015.3
20260505100530 12 164 0.0 3.2 0.00 0.00 0.00 90 1015.4
20260505100027 12 179 0.0 0.0 0.00 0.00 0.00 90 1015.3
20260505095523 12 177 0.0 0.0 0.00 0.00 0.00 90 1015.4
20260505095020 12 162 0.0 0.0 0.00 0.00 0.00 90 1015.3
20260505094516 12 184 0.0 0.0 0.00 0.00 0.00 90 1015.4
20260505094013 12 176 0.0 1.6 0.00 0.00 0.00 90 1015.5
20260505093509 12 156 0.0 1.6 0.00 0.00 0.00 90 1015.3
20260505093007 12 157 1.6 3.2 0.00 0.00 0.00 90 1015.3
20260505092504 12 148 0.0 1.6 0.00 0.00 0.00 90 1015.4
20260505092002 12 166 0.0 1.6 0.00 0.00 0.00 90 1015.2
20260505091459 12 170 0.0 0.0 0.00 0.00 0.00 90 1015.2
20260505090957 12 173 0.0 1.6 0.00 0.00 0.00 90 1015.2
20260505090455 12 177 0.0 0.0 0.00 0.00 0.00 90 1015.1
20260505085952 12 177 0.0 1.6 0.00 0.00 0.00 91 1015.0
20260505085450 11 205 1.6 1.6 0.00 0.00 0.00 91 1014.8
20260505084948 11 176 0.0 0.0 0.00 0.00 0.00 91 1015.1
20260505084446 11 172 0.0 0.0 0.00 0.00 0.00 91 1015.0
20260505083943 11 174 0.0 1.6 0.00 0.00 0.00 91 1014.9
20260505083440 11 178 0.0 0.0 0.00 0.00 0.00 90 1014.8
20260505082937 12 175 0.0 0.0 0.00 0.00 0.00 90 1014.8
20260505082432 12 161 0.0 3.2 0.00 0.00 0.00 90 1014.8
20260505081930 12 174 1.6 1.6 0.00 0.00 0.00 90 1014.8
20260505081426 12 167 0.0 0.0 0.00 0.00 0.00 90 1014.7
20260505080923 12 173 0.0 1.6 0.00 0.00 0.00 89 1014.8
20260505080419 12 179 0.0 1.6 0.00 0.00 0.00 89 1014.8
20260505075914 12 181 0.0 1.6 0.00 0.00 0.00 89 1014.7
20260505075412 12 181 0.0 0.0 0.00 0.00 0.00 89 1014.8
20260505074909 12 176 0.0 0.0 0.00 0.00 0.00 89 1014.9
20260505074406 12 196 0.0 3.2 0.00 0.00 0.00 89 1014.7
20260505073903 12 164 0.0 0.0 0.00 0.00 0.00 89 1014.5
20260505073401 12 155 0.0 3.2 0.00 0.00 0.00 89 1014.3
20260505072858 12 182 0.0 1.6 0.00 0.00 0.00 89 1014.3
20260505072354 12 145 0.0 1.6 0.00 0.00 0.00 89 1014.2
20260505071850 12 175 0.0 3.2 0.00 0.00 0.00 89 1014.1
20260505071346 12 178 0.0 0.0 0.00 0.00 0.00 89 1014.0
20260505070845 12 176 0.0 0.0 0.00 0.00 0.00 89 1014.3
20260505070341 12 177 0.0 0.0 0.00 0.00 0.00 89 1014.3
20260505065836 12 177 0.0 0.0 0.00 0.00 0.00 89 1014.2
20260505065333 12 170 0.0 1.6 0.00 0.00 0.00 88 1014.3
20260505064830 12 164 0.0 0.0 0.00 0.00 0.00 88 1013.9
20260505064327 12 166 0.0 1.6 0.00 0.00 0.00 88 1013.9
20260505063826 12 176 0.0 0.0 0.00 0.00 0.00 87 1013.8
20260505063321 12 183 0.0 1.6 0.00 0.00 0.00 86 1013.7
20260505062818 12 194 1.6 1.6 0.00 0.00 0.00 86 1013.7
20260505062316 13 169 0.0 1.6 0.00 0.00 0.00 85 1013.5
20260505061812 13 172 0.0 1.6 0.00 0.00 0.00 85 1013.5
20260505061310 13 174 0.0 0.0 0.00 0.00 0.00 84 1013.2
20260505060808 13 205 0.0 0.0 0.00 0.00 0.00 84 1013.5
20260505060304 13 251 1.6 1.6 0.00 0.00 0.00 83 1013.3
20260505055800 13 186 0.0 6.4 0.00 0.00 0.00 82 1013.4
20260505055256 13 173 1.6 3.2 0.00 0.00 0.00 82 1013.2
20260505054754 14 173 1.6 4.8 0.00 0.00 0.00 81 1013.0
20260505054251 14 171 1.6 3.2 0.00 0.00 0.00 81 1013.1
20260505053749 14 302 3.2 3.2 0.00 0.00 0.00 80 1013.1
20260505053246 15 173 1.6 4.8 0.00 0.00 0.00 80 1012.9
20260505052743 15 162 3.2 3.2 0.00 0.00 0.00 79 1013.4
20260505052240 15 166 0.0 6.4 0.00 0.00 0.00 78 1013.2
20260505051737 15 178 3.2 4.8 0.00 0.00 0.00 77 1013.2
20260505051235 15 201 0.0 6.4 0.00 0.00 0.00 76 1013.2
20260505050732 16 25 1.6 3.2 0.00 0.00 0.00 76 1013.1
20260505050231 16 252 1.6 6.4 0.00 0.00 0.00 75 1013.1
20260505041700 17 192 0.0 1.6 0.00 0.00 0.00 72 1012.4
20260505041158 17 213 1.6 1.6 0.00 0.00 0.00 71 1012.3
20260505040654 17 193 1.6 1.6 0.00 0.00 0.00 71 1012.3
20260505040152 17 184 1.6 1.6 0.00 0.00 0.00 70 1012.1
20260505035648 17 170 0.0 1.6 0.00 0.00 0.00 70 1012.1
20260505035144 17 198 3.2 3.2 0.00 0.00 0.00 69 1012.0
20260505034641 18 351 3.2 4.8 0.00 0.00 0.00 68 1012.0
20260505034138 18 116 1.6 4.8 0.00 0.00 0.00 68 1011.8
20260505033634 18 178 0.0 4.8 0.00 0.00 0.00 67 1011.7
20260505033133 18 172 0.0 4.8 0.00 0.00 0.00 67 1011.8
20260505032631 19 173 0.0 1.6 0.00 0.00 0.00 67 1011.6
20260505032127 20 196 4.8 9.7 0.00 0.00 0.00 65 1011.5
20260505031624 20 113 1.6 4.8 0.00 0.00 0.00 65 1011.4
20260505031120 20 157 0.0 1.6 0.00 0.00 0.00 65 1011.3
20260505030617 21 213 1.6 1.6 0.00 0.00 0.00 66 1011.2
20260505030113 21 172 0.0 1.6 0.00 0.00 0.00 69 1011.1
20260505025609 21 169 0.0 1.6 0.00 0.00 0.00 68 1011.0
20260505025108 21 171 3.2 4.8 0.00 0.00 0.00 67 1010.9
20260505024605 21 171 1.6 4.8 0.00 0.00 0.00 67 1010.8
20260505024102 22 245 1.6 4.8 0.00 0.00 0.00 66 1010.9
20260505023559 22 156 1.6 4.8 0.00 0.00 0.00 65 1010.8
20260505023057 22 160 1.6 4.8 0.00 0.00 0.00 64 1010.7
20260505022554 22 168 3.2 6.4 0.00 0.00 0.00 63 1010.9
20260505022051 23 173 1.6 3.2 0.00 0.00 0.00 62 1010.6
20260505021548 23 174 1.6 3.2 0.00 0.00 0.00 61 1010.8
20260505021044 23 173 1.6 6.4 0.00 0.00 0.00 61 1010.9
20260505020544 23 173 0.0 3.2 0.00 0.00 0.00 60 1010.9
20260505020041 24 174 1.6 3.2 0.00 0.00 0.00 59 1010.8
20260505015538 23 174 0.0 4.8 0.00 0.00 0.00 60 1010.8
20260505015035 23 171 1.6 3.2 0.00 0.00 0.00 59 1010.9
20260505014532 24 173 0.0 4.8 0.00 0.00 0.00 58 1010.8
20260505014029 24 187 1.6 3.2 0.00 0.00 0.00 57 1010.8
20260505013527 25 165 3.2 3.2 0.00 0.00 0.00 57 1010.8
20260505013024 25 185 0.0 1.6 0.00 0.00 0.00 57 1010.9
20260505012522 25 175 1.6 3.2 0.00 0.00 0.00 56 1011.0
20260505012019 24 200 1.6 3.2 0.00 0.00 0.00 58 1010.7
20260505011514 24 138 3.2 3.2 0.00 0.00 0.00 56 1011.0
20260505011011 25 130 1.6 3.2 0.00 0.00 0.00 55 1011.1
20260505010506 25 225 1.6 3.2 0.00 0.00 0.00 54 1010.8
20260505010003 25 233 1.6 1.6 0.00 0.00 0.00 53 1011.1
20260505005500 25 168 1.6 1.6 0.00 0.00 0.00 54 1011.2
20260505004958 24 196 0.0 3.2 0.00 0.00 0.00 56 1011.1
20260505004454 25 179 1.6 3.2 0.00 0.00 0.00 53 1011.2
20260505003951 25 172 1.6 3.2 0.00 0.00 0.00 52 1011.2
20260505003448 25 174 1.6 3.2 0.00 0.00 0.00 55 1011.2
20260505002944 25 225 1.6 4.8 0.00 0.00 0.00 54 1011.3
20260505002440 25 177 0.0 3.2 0.00 0.00 0.00 53 1011.3
20260505001939 25 213 1.6 3.2 0.00 0.00 0.00 54 1011.5
20260505001436 25 215 1.6 3.2 0.00 0.00 0.00 53 1011.2
20260505000933 25 158 0.0 1.6 0.00 0.00 0.00 54 1011.4
20260505000431 24 198 3.2 6.4 0.00 0.00 0.00 54 1011.5
20260504235928 23 183 1.6 6.4 0.00 0.00 0.00 57 1011.2
20260504235425 24 202 1.6 4.8 0.00 0.00 0.00 54 1011.5
20260504234921 24 176 1.6 4.8 0.00 0.00 0.00 54 1011.5
20260504234419 25 166 1.6 4.8 0.00 0.00 0.00 53 1011.6
20260504233915 25 206 0.0 3.2 0.00 0.00 0.00 53 1011.6
20260504233411 24 217 0.0 4.8 0.00 0.00 0.00 54 1011.6
20260504232908 24 184 0.0 1.6 0.00 0.00 0.00 54 1011.6
20260504232405 24 188 3.2 4.8 0.00 0.00 0.00 55 1011.5
20260504231902 23 211 1.6 4.8 0.00 0.00 0.00 57 1011.7
20260504231358 23 126 1.6 3.2 0.00 0.00 0.00 56 1011.5
20260504230854 24 160 1.6 6.4 0.00 0.00 0.00 54 1012.0
20260504230352 24 178 3.2 3.2 0.00 0.00 0.00 55 1011.8
20260504225851 23 134 3.2 3.2 0.00 0.00 0.00 55 1011.9
20260504225347 23 148 4.8 11.3 0.00 0.00 0.00 56 1012.0
20260504224844 24 220 3.2 4.8 0.00 0.00 0.00 55 1012.1
20260504224341 23 204 4.8 4.8 0.00 0.00 0.00 55 1011.9
20260504223838 23 180 3.2 4.8 0.00 0.00 0.00 56 1012.2
20260504223333 23 191 3.2 6.4 0.00 0.00 0.00 56 1012.3
20260504222830 23 169 1.6 4.8 0.00 0.00 0.00 57 1012.2
20260504222327 23 110 3.2 4.8 0.00 0.00 0.00 56 1012.4
20260504221826 23 201 0.0 4.8 0.00 0.00 0.00 58 1012.4
20260504221322 23 98 1.6 3.2 0.00 0.00 0.00 55 1012.6
20260504220819 22 181 1.6 4.8 0.00 0.00 0.00 59 1012.4
20260504220315 22 171 0.0 4.8 0.00 0.00 0.00 60 1012.6
20260504215813 22 184 1.6 6.4 0.00 0.00 0.00 56 1012.7
20260504215309 21 118 4.8 4.8 0.00 0.00 0.00 58 1012.6
20260504214805 22 176 1.6 6.4 0.00 0.00 0.00 59 1012.6
20260504214302 22 186 3.2 4.8 0.00 0.00 0.00 60 1012.8
20260504213759 22 161 4.8 4.8 0.00 0.00 0.00 57 1012.8
20260504213254 22 189 3.2 6.4 0.00 0.00 0.00 59 1012.9
20260504212752 22 185 1.6 1.6 0.00 0.00 0.00 57 1012.8
20260504212248 21 161 0.0 1.6 0.00 0.00 0.00 60 1012.9
20260504211746 21 93 3.2 6.4 0.00 0.00 0.00 60 1013.0
20260504211242 21 184 0.0 9.7 0.00 0.00 0.00 59 1013.2
20260504210740 21 142 4.8 6.4 0.00 0.00 0.00 61 1013.2
20260504210237 21 173 0.0 1.6 0.00 0.00 0.00 62 1013.5
20260504205733 21 164 3.2 6.4 0.00 0.00 0.00 60 1013.3
20260504205231 21 226 3.2 3.2 0.00 0.00 0.00 59 1013.4
20260504204729 20 160 1.6 4.8 0.00 0.00 0.00 60 1013.5
20260504204227 21 175 0.0 4.8 0.00 0.00 0.00 62 1013.6
20260504203727 20 127 1.6 4.8 0.00 0.00 0.00 63 1013.6
20260504203224 20 152 0.0 3.2 0.00 0.00 0.00 62 1013.7
20260504202723 20 141 3.2 6.4 0.00 0.00 0.00 64 1013.9
20260504202221 20 116 3.2 9.7 0.00 0.00 0.00 66 1013.9
20260504201718 20 171 4.8 11.3 0.00 0.00 0.00 65 1013.7
20260504201215 20 178 0.0 4.8 0.00 0.00 0.00 64 1013.8
20260504200713 19 188 1.6 6.4 0.00 0.00 0.00 65 1014.1
20260504200208 19 163 1.6 4.8 0.00 0.00 0.00 65 1014.0
20260504195705 19 175 1.6 6.4 0.00 0.00 0.00 66 1014.1
20260504195201 20 161 3.2 4.8 0.00 0.00 0.00 65 1014.1
20260504194658 19 172 3.2 6.4 0.00 0.00 0.00 65 1014.2
20260504194154 18 137 3.2 6.4 0.00 0.00 0.00 66 1014.3
20260504193651 18 146 8.0 11.3 0.00 0.00 0.00 66 1014.1
20260504193148 18 167 3.2 6.4 0.00 0.00 0.00 66 1014.1
20260504192646 18 187 1.6 4.8 0.00 0.00 0.00 67 1014.3
20260504192144 19 184 1.6 4.8 0.00 0.00 0.00 67 1014.4
20260504191643 18 171 4.8 4.8 0.00 0.00 0.00 67 1014.4
20260504191138 17 222 1.6 9.7 0.00 0.00 0.00 69 1014.3
20260504190634 18 115 1.6 4.8 0.00 0.00 0.00 68 1014.5
20260504190131 18 111 1.6 4.8 0.00 0.00 0.00 69 1014.5
20260504185627 18 166 3.2 12.9 0.00 0.00 0.00 69 1014.4
20260504185124 18 207 3.2 6.4 0.00 0.00 0.00 68 1014.5
20260504184620 19 176 3.2 4.8 0.00 0.00 0.00 66 1014.5
20260504184115 18 119 6.4 9.7 0.00 0.00 0.00 69 1014.8
20260504183613 17 180 3.2 4.8 0.00 0.00 0.00 71 1014.7
20260504183111 17 181 3.2 4.8 0.00 0.00 0.00 70 1014.6
20260504182608 17 140 1.6 3.2 0.00 0.00 0.00 69 1014.5
20260504182105 16 160 3.2 4.8 0.00 0.00 0.00 73 1014.5
20260504181602 16 43 6.4 9.7 0.00 0.00 0.00 74 1014.6
20260504181100 16 174 1.6 9.7 0.00 0.00 0.00 75 1014.6
20260504180559 16 53 3.2 6.4 0.00 0.00 0.00 74 1014.5
20260504180057 16 188 0.0 3.2 0.00 0.00 0.00 75 1014.6
20260504175554 16 180 1.6 6.4 0.00 0.00 0.00 75 1014.5
20260504175051 16 183 3.2 4.8 0.00 0.00 0.00 76 1014.5
20260504174549 15 148 4.8 6.4 0.00 0.00 0.00 76 1014.8
20260504174045 15 146 3.2 6.4 0.00 0.00 0.00 77 1014.5
20260504173542 15 200 3.2 6.4 0.00 0.00 0.00 78 1014.4
20260504173040 15 166 3.2 4.8 0.00 0.00 0.00 77 1014.7
20260504172536 15 177 1.6 4.8 0.00 0.00 0.00 78 1014.7
20260504172032 15 208 1.6 9.7 0.00 0.00 0.00 78 1014.5
20260504171529 15 198 3.2 6.4 0.00 0.00 0.00 77 1014.5
20260504171026 15 167 1.6 9.7 0.00 0.00 0.00 78 1014.5
20260504170522 15 201 1.6 9.7 0.00 0.00 0.00 78 1014.3
20260504160442 15 164 3.2 6.4 0.00 0.00 0.00 78 1014.2
20260504150906 15 154 1.6 3.2 0.00 0.00 0.00 78 1013.9
20260504150403 14 182 3.2 9.7 0.00 0.00 0.00 79 1013.8
20260504141333 14 173 1.6 4.8 0.00 0.00 0.00 81 1013.3
20260504140829 13 173 1.6 1.6 0.00 0.00 0.00 82 1013.2
20260504140325 13 166 0.0 1.6 0.00 0.00 0.00 83 1013.0
20260504130754 13 174 1.6 4.8 0.00 0.00 0.00 83 1012.2
20260504130250 13 172 1.6 9.7 0.00 0.00 0.00 82 1012.0